Weather Service Report


408 
ASUS42 KCAE 260310
RWRCAE
REGIONAL WEATHER ROUNDUP
NATIONAL WEATHER SERVICE COLUMBIA SC
1100 PM EDT MON JUL 25 2016

NOTE: "FAIR" INDICATES FEW OR NO CLOUDS BELOW 12,000 FEET WITH NO
SIGNIFICANT WEATHER AND/OR OBSTRUCTIONS TO VISIBILITY.

NOT ALL STATIONS ARE QUALITY CONTROLLED BY THE NATIONAL 
WEATHER SERVICE. USE DATA WITH CAUTION...ESPECIALLY 
DEWPOINT OBSERVATIONS.

SCZ001>056-GAZ040-063>065-077-260400-
...UPSTATE SOUTH CAROLINA...
  
CITY           SKY/WX    TMP DP  RH WIND       PRES   REMARKS
ANDERSON       MOCLDY    84  70  62 N6        30.05R                  
LIBERTY        HVY RAIN  75  72  91 W12       30.08R                  
SPARTANBURG    CLOUDY    79  70  73 CALM      30.04S                  
CLEMSON        CLOUDY    80  74  81 NE6       30.07R                  
GREENVILLE     MOCLDY    82  70  66 W3        30.08R                  
GREENWOOD      CLEAR     85  68  56 S8        30.05R                  
GREER          CLOUDY    75  73  93 W7        30.05R                  
ROCK HILL      CLEAR     83  71  67 SW7       30.04R                  
CHESTER        CLEAR     81  68  65 S3        30.04S                  
LAURENS        PTCLDY    82  70  65 S5        30.04R                  


...CENTRAL SOUTH CAROLINA...
  
CITY           SKY/WX    TMP DP  RH WIND       PRES   REMARKS
COLUMBIA APT   CLEAR     85  71  63 S6        30.03R                  
COLUMBIA OWENS CLEAR     84  70  62 S7        30.05R                  
MCENTIRE ANGB  CLEAR     81  72  74 SE3       30.05R                  
ORANGEBURG     CLEAR     80  71  74 S6        30.06R                  
SUMTER SHAW    CLEAR     82  71  68 S7        30.03R                  
NEWBERRY       PTCLDY    82  72  69 S5        30.06S                  
AIKEN          FAIR      81  70  69 S7        30.09R                  
MANNING        FAIR      81  72  74 S7        30.06R                  
LANCASTER      CLEAR     82  72  69 S5        30.04R                  
WINNSBORO      CLEAR     82  70  65 S10       30.05R                  


...EASTERN AND COASTAL SOUTH CAROLINA...
  
CITY           SKY/WX    TMP DP  RH WIND       PRES   REMARKS
MYRTLE BEACH   CLEAR     82  70  65 SW7       30.08R                  
N MYRTLE BCH   CLEAR     82  75  79 SW14      30.05R                  
CONWAY         FAIR      77  72  83 S3        30.06R                  
MARION           N/A     79  70  73 S8        30.05R                  
HARTSVILLE     FAIR      79  72  78 S8        30.04R                  
FLORENCE       CLEAR     81  72  74 S8        30.05R                  
DARLINGTON     CLEAR     83  73  72 S10G17    30.04R                  
CHARLESTON APT PTCLDY    79  72  79 S8        30.07R                  
MOUNT PLEASANT FAIR      81  73  78 CALM      30.07R                  
WALTERBORO     CLEAR     79  75  89 S5        30.07S                  
BEAUFORT       CLEAR     81  73  76 S3        30.07R                  


...EASTERN GEORGIA...
  
CITY           SKY/WX    TMP DP  RH WIND       PRES   REMARKS
AUGUSTA BUSH F PTCLDY    84  69  60 S9        30.03R                  
AUGUSTA DANIEL CLEAR     86  68  54 S8        30.06R                  
WASHINGTON     FAIR      86  73  66 S3        30.05R                  
CLAXTON        FAIR      81  72  75 CALM      30.06R                  
STATESBORO     CLEAR     81  73  76 S5        30.07R                  
SAVANNAH       CLEAR     80  73  79 S6        30.07R                  


...SOUTHERN NORTH CAROLINA...
  
CITY           SKY/WX    TMP DP  RH WIND       PRES   REMARKS
CHARLOTTE      PTCLDY    85  69  58 SW7       30.04R                  
MONROE         CLEAR     83  68  60 S6        30.03R                  
WADESBORO      PTCLDY    84  71  63 S7        30.01S                  
RUTHERFORDTON    N/A     77  73  87 NW3       30.07R                  
ASHEVILLE      MOCLDY    74  66  76 N3        30.14R                  

$$
  

Return to Home page


Western Regional Climate Center, wrcc@dri.edu